TimeCST,TemperatureF,Dew PointF,Humidity,Sea Level PressureIn,VisibilityMPH,Wind Direction,Wind SpeedMPH,Gust SpeedMPH,PrecipitationIn,Events,Conditions,WindDirDegrees,DateUTC
12:53 AM,9.0,6.1,88,30.38,10.0,NW,5.8,-,N/A,,Overcast,320,2013-03-01 06:53:00
1:53 AM,10.9,7.0,84,30.38,10.0,North,6.9,-,N/A,,Overcast,350,2013-03-01 07:53:00
2:53 AM,10.9,7.0,84,30.39,10.0,NNW,8.1,-,N/A,,Overcast,330,2013-03-01 08:53:00
3:53 AM,12.0,8.1,84,30.39,10.0,NW,9.2,-,N/A,,Overcast,320,2013-03-01 09:53:00
4:53 AM,10.0,7.0,87,30.40,10.0,North,4.6,-,N/A,,Overcast,350,2013-03-01 10:53:00
5:53 AM,6.8,3.2,85,30.35,10.0,NNW,5.8,-,N/A,,Mostly Cloudy,330,2013-03-01 11:53:00
6:53 AM,5.0,1.9,87,30.44,10.0,NW,6.9,-,N/A,,Scattered Clouds,310,2013-03-01 12:53:00
7:53 AM,5.0,1.0,84,30.45,10.0,NW,5.8,-,N/A,,Scattered Clouds,310,2013-03-01 13:53:00
8:53 AM,7.0,1.9,80,30.46,10.0,NW,8.1,-,N/A,,Scattered Clouds,310,2013-03-01 14:53:00
9:53 AM,10.9,5.0,77,30.46,10.0,NNW,5.8,-,N/A,,Partly Cloudy,340,2013-03-01 15:53:00
10:53 AM,17.1,9.0,71,30.46,10.0,NNE,5.8,-,N/A,,Partly Cloudy,30,2013-03-01 16:53:00
11:53 AM,21.0,10.0,63,30.46,10.0,NNE,3.5,-,N/A,,Partly Cloudy,30,2013-03-01 17:53:00
12:53 PM,21.9,10.9,63,30.45,10.0,Calm,Calm,-,N/A,,Clear,0,2013-03-01 18:53:00
1:53 PM,23.0,12.9,65,30.43,10.0,NE,4.6,-,N/A,,Clear,40,2013-03-01 19:53:00
2:53 PM,25.0,12.9,60,30.42,10.0,North,3.5,-,N/A,,Clear,10,2013-03-01 20:53:00
3:53 PM,24.1,14.0,65,30.43,10.0,North,4.6,-,N/A,,Clear,350,2013-03-01 21:53:00
4:53 PM,24.1,12.9,62,30.43,10.0,NE,5.8,-,N/A,,Partly Cloudy,40,2013-03-01 22:53:00
5:53 PM,21.2,12.2,68,30.37,10.0,ENE,4.6,-,N/A,,Partly Cloudy,70,2013-03-01 23:53:00
6:53 PM,19.0,12.0,74,30.44,10.0,ENE,3.5,-,N/A,,Clear,70,2013-03-02 00:53:00
7:53 PM,19.0,10.9,71,30.43,10.0,Calm,Calm,-,N/A,,Clear,0,2013-03-02 01:53:00
8:53 PM,14.0,9.0,80,30.42,10.0,Calm,Calm,-,N/A,,Clear,0,2013-03-02 02:53:00
9:53 PM,10.9,9.0,92,30.40,10.0,Calm,Calm,-,N/A,,Clear,0,2013-03-02 03:53:00
10:53 PM,10.0,7.0,87,30.39,10.0,Calm,Calm,-,N/A,,Clear,0,2013-03-02 04:53:00
11:53 PM,6.1,5.0,95,30.37,8.0,SSW,4.6,-,N/A,,Clear,200,2013-03-02 05:53:00